Starlink 11381

operational
NORAD ID: 62094 Int'l Des: 2024-220 Owner: SPXS Country: US Constellation: starlink
LEOCIRCULAR

Über Starlink 11381

Beschreibung wird geladen...

Live-Position

3D-Globus wird geladen...

Nächste Überflüge

Höhenverlauf

Altitude vs Time

uPlot chart will show altitude changes over time

Zweizeiliger Elementsatz

1 62094U 24220G 26036.89610374 .00292980 00000-0 22067-2 0 9995
2 62094 43.0050 234.6460 0001551 272.2224 87.8466 15.70845234 69950
Epoch: 5. Feb. 2026 • Age: 8 hours

Aktueller Status

Höhe 357.3 km
Geschwindigkeit 7.70 km/s
Subsatellitenpunkt -10.26°S, 9.19°E
Startdatum 25. Nov. 2024
Alter 1.1 years
Typ internet

Technische Details

Klassifizierung Payload
Masse 960.00 kg
Trockenmasse 910.00 kg
Gesamtmasse 960.00 kg
Länge 0.30 m
Durchmesser 4.10 m
Spannweite 29.00 m
Form Box + pan
Hersteller SPXS
Bus-Typ Starlink V2MD
Phasenstatus In Orbit
Besitzer/Staat SPXS/US

Große Konstellationen

Loading constellations...